Location: Unspecified
(40.9447°N, 78.9903°W)
Time: 09:40:45
(UTC-04:00)

Resurs 1-4 Rocket - Pass Details

Date: 30 July 2021
Orbit: 799 x 814 km, 98.6° (Epoch: 27 September)

Event Time Altitude Azimuth Distance (km) Brightness Sun altitude
Rises 02:31:51 0° 17° (NNE) 3,339 6.6 -28.5°
Reaches altitude 10° 02:34:15 10° 21° (NNE) 2,401 5.5 -28.3°
Enters shadow 02:39:28 59° 100° (E) 926 2.3 -28.0°
